Miscellaneous Local Product
Issued by NWS Hastings, NE

Home | Current Version | Previous Version | Text Only | Print | Product List | Glossary Off
Versions: 1 2 3 4 5 6 7 8 9 10 11 12 13 14 15 16 17 18 19 20 21 22 23 24 25 26 27 28 29 30 31 32 33 34 35 36 37 38 39 40 41 42 43 44 45 46 47 48 49 50

000
AXUS43 KGID 231102
MISGRI

GID CWA HOURLY WEATHER ROUNDUP
NATIONAL WEATHER SERVICE HASTINGS NE
600 AM CDT MON APR 23 2018

NOTE: "FAIR" INDICATES FEW OR NO CLOUDS BELOW 12,000 FEET WITH NO
SIGNIFICANT WEATHER AND/OR OBSTRUCTIONS TO VISIBILITY.

...SOUTH CENTRAL NEBRASKA...

CITY           SKY/WX    TMP DP  RH WIND       PRES   REMARKS
GRAND ISLAND   CLEAR     42  36  79 N3        30.18R
KEARNEY        PTCLDY    42  38  85 NW5       30.18S
HASTINGS       CLEAR     41  37  86 NW3       30.17S
ORD            CLEAR     32  31  96 CALM      30.17S
YORK             N/A     39  30  70 CALM      30.18R
AURORA         PTCLDY    42  30  62 E5        30.17S
LEXINGTON      CLOUDY    38  36  92 CALM      30.18S FOG
HOLDREGE       CLEAR     36  35  95 N3        30.17R
HEBRON         CLEAR     37  34  90 CALM      30.17R

...NEBRASKA PANHANDLE...

CITY           SKY/WX    TMP DP  RH WIND       PRES   REMARKS
CHADRON        CLEAR     37  33  85 CALM      30.09S
ALLIANCE       CLEAR     34  33  96 SE5       30.10S WCI  30
SCOTTSBLUFF    CLEAR     36  35  96 SE9       30.09F WCI  29
SIDNEY         CLEAR     35  33  92 S8        30.11S WCI  29

...WESTERN AND NORTH CENTRAL NEBRASKA...

CITY           SKY/WX    TMP DP  RH WIND       PRES   REMARKS
VALENTINE      CLEAR     37  35  92 CALM      30.15R
AINSWORTH      CLEAR     35  35  97 S3        30.16S
ONEILL         CLEAR     43  37  77 S5        30.18S
BROKEN BOW     PTCLDY    34  31  88 CALM      30.17R
IMPERIAL       CLEAR     34  33  96 CALM      30.15S
NORTH PLATTE   CLEAR     33  30  88 E5        30.16F FOG     WCI  29
MCCOOK         CLEAR     34  33  96 CALM      30.17R FOG

...EASTERN NEBRASKA...

CITY           SKY/WX    TMP DP  RH WIND       PRES   REMARKS
NORFOLK        PTCLDY    36  32  85 CALM      30.18R
SO SIOUX CITY  FOG       34  32  92 CALM      30.20S VSB 1
TEKAMAH        CLEAR     34  32  92 N8        30.19R WCI  27
COLUMBUS       CLEAR     36  30  79 CALM      30.18F
ALBION         CLEAR     39  33  77 CALM      30.19R
OMAHA EPPLEY   PTCLDY    37  29  72 N9        30.18R WCI  30
OFFUTT AFB     CLEAR     35  29  77 CALM      30.16S
MILLARD        CLEAR     42  33  71 CALM      30.18R
LINCOLN        CLEAR     37  29  72 CALM      30.18S
NEBRASKA CITY  PTCLDY    45  30  55 N6        30.16S
BEATRICE       PTCLDY    38  32  79 CALM      30.17R
FALLS CITY     CLEAR     48  28  46 N6        30.14R

...NORTHERN KANSAS...

CITY           SKY/WX    TMP DP  RH WIND       PRES   REMARKS
GOODLAND       CLEAR     32  30  92 S7        30.15S WCI  26
HILL CITY      MOCLDY    41  38  89 W8        30.17S
NORTON         MOSUNNY   36  34  93 CALM      30.16S
PHILLIPSBURG   PTCLDY    41  37  87 NW8       30.17S
SMITH CENTER   CLEAR     43  37  81 NW5       30.18R
BELOIT         CLEAR     39  36  87 CALM      30.15S
HAYS           CLOUDY    45  40  82 NW8       30.16S
RUSSELL        CLEAR     45  43  93 N9        30.15R
CONCORDIA      PTCLDY    42  37  82 CALM      30.15R
SALINA         CLEAR     44  40  85 N5        30.14S
TOPEKA         CLOUDY    51  35  54 CALM      30.11R



USA.gov is the U.S. government's official web portal to all federal, state and local government web resources and services.